Weather History for Dayton Wright, OH

Change the Weather History Date:

Friday, November 23, 2012

  Actual Average (KFFO) Record (KFFO)
Temperature  
Mean Temperature 44 °F -  
Max Temperature 57 °F 48 °F 71 °F (1999)
Min Temperature 30 °F 31 °F 15 °F (2008)
Degree Days  
Heating Degree Days 22    
Moisture  
Dew Point 32 °F    
Average Humidity 65    
Maximum Humidity 89    
Minimum Humidity 55    
Precipitation  
Precipitation 0.00 in - - ()
Sea Level Pressure  
Sea Level Pressure 30.02 in    
Wind  
Wind Speed 13 mph (West)    
Max Wind Speed 21 mph    
Max Gust Speed 33 mph    
Visibility 10 miles    
Events      
Averages and records for this station are not official NWS values.
T = Trace of Precipitation, MM = Missing Value Source: NWS Daily Summary

Daily Weather History Graph

Daily Weather History Graph

Search for Another Location

Airport:

Trip Planner

Search our weather history database for the weather conditions in past years. The results will help you decide how hot, cold, wet, or windy it might be!

Date:

Astronomy

Nov. 23, 2012 Rise Set
Actual Time 7:30 AM EST 5:16 PM EST
Civil Twilight 7:01 AM EST 5:45 PM EST
Nautical Twilight 6:28 AM EST 6:18 PM EST
Astronomical Twilight 5:55 AM EST 6:50 PM EST
Moon 2:29 PM EST (11/23) 2:49 AM EST (11/23)
Length of Visible Light 10h 44m
Length of Day
9h 45m
Waxing Gibbous, 79% of the Moon is Illuminated
Nov 23
Waxing Gibbous
Nov 28
Full
Dec 6
Last Quarter
Dec 13
New
Dec 20
First Quarter

Hourly Weather History & Observations

Time (EST) Temp. Windchill Dew Point Humidity Pressure Visibility Wind Dir Wind Speed Gust Speed Precip Events Conditions
12:53 AM 54.0 °F - 41.0 °F 62% 29.97 in 10.0 mi SSW 8.1 mph - N/A   Clear
1:53 AM 53.1 °F - 42.1 °F 66% 29.95 in 10.0 mi SSW 8.1 mph - 0.00 in   Overcast
2:31 AM 55.4 °F - 41.0 °F 58% 29.95 in 10.0 mi SSW 11.5 mph - N/A   Overcast
2:53 AM 55.9 °F - 41.0 °F 57% 29.94 in 10.0 mi SW 11.5 mph 18.4 mph N/A   Overcast
3:14 AM 57.2 °F - 41.0 °F 55% 29.93 in 10.0 mi SW 15.0 mph 21.9 mph N/A   Overcast
3:39 AM 57.2 °F - 41.0 °F 55% 29.93 in 10.0 mi SW 17.3 mph 25.3 mph N/A   Overcast
3:53 AM 55.9 °F - 41.0 °F 57% 29.92 in 10.0 mi SW 17.3 mph 27.6 mph N/A   Overcast
4:53 AM 55.9 °F - 42.1 °F 60% 29.91 in 10.0 mi SW 15.0 mph 21.9 mph N/A   Overcast
5:53 AM 53.1 °F - 46.0 °F 77% 29.92 in 10.0 mi WSW 8.1 mph - 0.00 in   Overcast
6:32 AM 53.6 °F - 48.2 °F 82% 29.93 in 10.0 mi WSW 10.4 mph - N/A   Overcast
6:53 AM 52.0 °F - 48.9 °F 89% 29.93 in 10.0 mi West 11.5 mph 18.4 mph 0.00 in   Overcast
7:19 AM 50.0 °F - 44.6 °F 82% 29.94 in 10.0 mi West 13.8 mph 24.2 mph N/A   Overcast
7:53 AM 46.0 °F 39.9 °F 39.0 °F 76% 29.97 in 10.0 mi West 13.8 mph 23.0 mph N/A   Overcast
8:53 AM 43.0 °F 36.8 °F 36.0 °F 76% 29.98 in 10.0 mi West 11.5 mph 23.0 mph N/A   Overcast
9:53 AM 42.1 °F 33.9 °F 32.0 °F 67% 29.99 in 10.0 mi West 17.3 mph 23.0 mph N/A   Clear
10:53 AM 44.1 °F 35.7 °F 30.9 °F 60% 30.01 in 10.0 mi West 20.7 mph 27.6 mph N/A   Partly Cloudy
11:53 AM 43.0 °F 34.8 °F 30.0 °F 60% 30.00 in 10.0 mi West 18.4 mph 29.9 mph N/A   Mostly Cloudy
12:53 PM 42.1 °F 33.3 °F 28.0 °F 58% 29.99 in 10.0 mi West 19.6 mph 31.1 mph N/A   Overcast
1:53 PM 39.9 °F 30.5 °F 27.0 °F 60% 30.00 in 10.0 mi West 19.6 mph 29.9 mph N/A   Scattered Clouds
2:53 PM 39.9 °F 31.1 °F 25.0 °F 55% 30.01 in 10.0 mi West 17.3 mph 33.4 mph N/A   Overcast
3:53 PM 37.9 °F 28.9 °F 25.0 °F 60% 30.04 in 10.0 mi West 16.1 mph 31.1 mph N/A   Overcast
4:53 PM 37.0 °F 26.4 °F 26.1 °F 65% 30.08 in 10.0 mi West 20.7 mph 32.2 mph N/A   Overcast
5:53 PM 33.1 °F 23.9 °F 23.0 °F 66% 30.12 in 10.0 mi NW 12.7 mph - N/A   Overcast
6:31 PM 33.8 °F 23.5 °F 23.0 °F 65% 30.12 in 10.0 mi WNW 16.1 mph 23.0 mph N/A   Overcast
6:53 PM 32.0 °F 20.8 °F 21.9 °F 66% 30.14 in 10.0 mi WNW 17.3 mph 25.3 mph N/A   Overcast
7:53 PM 30.9 °F 21.2 °F 19.9 °F 64% 30.17 in 10.0 mi WNW 12.7 mph 20.7 mph N/A   Overcast
8:51 PM 30.2 °F 19.8 °F 19.4 °F 64% 30.16 in 10.0 mi WNW 13.8 mph - N/A   Overcast
8:53 PM 30.0 °F 19.1 °F 19.0 °F 64% 30.18 in 10.0 mi WNW 15.0 mph - N/A   Overcast
10:26 PM 30.2 °F 21.3 °F 17.6 °F 60% 30.16 in 10.0 mi WNW 10.4 mph - N/A   Overcast
10:53 PM 30.0 °F 20.0 °F 18.0 °F 61% 30.19 in 10.0 mi NNW 12.7 mph - N/A   Overcast
11:53 PM 30.0 °F 21.1 °F 19.0 °F 64% 30.17 in 10.0 mi WNW 10.4 mph - N/A   Overcast